Home   Weather   Cape Town   Past weeks
Flag for South Africa

Past Weather in Cape Town, South Africa — Yesterday and Last 2 Weeks

Now
55 °F

Light rain. Partly sunny.


Feels Like: 50 °F
Forecast: 58 / 52 °F
Wind: 23 mph from Northwest

Location: Cape Town International Airport

Current Time: Jul 23, 2019 at 3:43:34 pm

Latest Report: Jul 23, 2019 at 3:00 pm


Visibility: 5 mi

Pressure: 29.56 "Hg

Humidity: 77%

Dew Point: 48 °F

Location of Cape TownLocation

Past Weather in Cape Town — Graph

°F

Cape Town Temperature Yesterday

Maximum temperature yesterday: 61 °F (at 2:00 pm)
Minimum temperature yesterday: 50 °F (at 12:00 am)
Average temperature yesterday: 56 °F

High & Low Weather Summary for the Past Weeks

 TemperatureHumidityPressure
High72 °F (Jul 21, 3:00 pm)100% (Jul 8, 11:00 pm)30.45 "Hg (Jul 8, 11:00 pm)
Low36 °F (Jul 21, 8:00 am)23% (Jul 21, 3:00 pm)29.56 "Hg (Jul 23, 6:00 am)
Average55 °F83%30.10 "Hg
* Reported Jul 8 2:00 pm — Jul 23 2:00 pm, Cape Town. Weather by CustomWeather, © 2019

Note: Actual official high and low records may vary slightly from our data, if they occured in-between our weather recording intervals... More about our weather records

Advertising

Cape Town Weather History for the Previous 24 Hours

Scroll right to see more
 ConditionsComfort  
Time TempWeatherWind HumidityBarometerVisibility
2:00 pm
Tue, Jul 23
55 °FScattered showers. Partly sunny.22 mph77%29.56 "Hg5 mi
1:00 pm55 °FPartly sunny.18 mph77%29.56 "HgN/A
12:00 pm52 °FLight rain. Partly sunny.15 mph82%29.59 "Hg5 mi
11:26 am52 °FRain. Broken clouds.18 mph82%29.62 "Hg2 mi
11:00 am54 °FThunderstorms. Broken clouds.23 mph88%29.59 "Hg1 mi
10:00 am57 °FScattered showers. Partly sunny.17 mph94%29.56 "Hg5 mi
9:30 am57 °FBroken clouds.16 mph94%29.56 "Hg5 mi
9:00 am57 °FLight rain. Mostly cloudy.18 mph94%29.56 "Hg4 mi
8:57 am57 °FLight rain. Mostly cloudy.18 mph94%29.56 "Hg4 mi
8:26 am57 °FLight rain. Cloudy.21 mph94%29.56 "HgN/A
8:00 am55 °FLight rain. Broken clouds.22 mph94%29.56 "HgN/A
7:00 am55 °FLight rain. Partly cloudy.25 mph94%29.56 "HgN/A
6:00 am55 °FLight rain. Passing clouds.28 mph88%29.56 "Hg5 mi
5:26 am55 °FRain. Passing clouds.29 mph88%29.59 "Hg4 mi
4:57 am55 °FLight rain. Passing clouds.26 mph88%29.59 "Hg4 mi
4:26 am55 °FLight rain. Passing clouds.25 mph94%29.62 "Hg5 mi
4:00 am55 °FRain. Passing clouds.25 mph94%29.65 "Hg4 mi
3:00 am55 °FLight rain. Passing clouds.29 mph94%29.65 "HgN/A
2:00 am57 °FRain. Mostly cloudy.28 mph82%29.71 "Hg3 mi
1:00 am57 °FPassing clouds.26 mph82%29.71 "HgN/A
12:00 am55 °FPassing clouds.28 mph88%29.74 "HgN/A
11:00 pm
Mon, Jul 22
57 °FPassing clouds.29 mph82%29.77 "HgN/A
10:00 pm55 °FPassing clouds.25 mph88%29.77 "HgN/A
9:00 pm55 °FPassing clouds.26 mph94%29.80 "HgN/A
8:18 pm55 °FPartly cloudy.28 mph94%29.80 "HgN/A
8:00 pm57 °FRain. Mostly cloudy.28 mph88%29.80 "Hg2 mi
7:00 pm55 °FPassing clouds.25 mph94%29.80 "HgN/A
6:56 pm55 °FPassing clouds.25 mph94%29.80 "HgN/A
6:28 pm57 °FLight rain. Mostly cloudy.22 mph88%29.80 "Hg4 mi
6:00 pm57 °FLight rain. Mostly cloudy.24 mph82%29.80 "HgN/A
5:00 pm59 °FPartly sunny.24 mph77%29.80 "HgN/A
4:54 pm59 °FPartly sunny.24 mph77%29.80 "HgN/A
4:00 pm59 °FBroken clouds.22 mph72%29.83 "HgN/A
3:00 pm61 °FPartly sunny.18 mph72%29.83 "HgN/A
Weather by CustomWeather, © 2019

See weather overview